Wind_Speed
26 24 22 22 23 19 16 15 15 14 11 13 13 11 14 16 18 18 23 27 24 11 12 20 17 15 19 17 19 18 4 13 11 7 4 5 9 15 16 14 13 3 12 17 22
25 23 21 20 18 15 12 10 10 8 8 11 10 11 11 13 18 22 22 23 28 14 13 27 21 17 13 12 12 8 7 14 11 1 1 4 10 13 13 28 6 7 15 25 22
22 22 21 19 17 13 9 9 6 5 6 8 9 9 10 10 10 15 20 17 33 24 15 22 22 19 14 9 9 8 15 4 9 13 5 8 10 14 10 8 6 21 29 24 22
21 20 18 17 16 14 10 7 4 5 4 5 5 5 11 13 7 6 12 10 22 25 20 20 21 20 9 8 15 9 10 17 10 13 7 6 13 15 8 16 25 27 17 23 22
19 19 18 17 16 15 12 7 5 3 2 3 2 4 12 8 9 2 6 15 18 29 26 25 25 20 14 7 9 4 17 18 19 16 5 3 8 9 28 26 29 16 22 22 24
20 17 16 16 15 13 10 6 5 4 4 3 3 5 7 3 6 8 14 12 24 33 30 26 20 22 13 10 9 11 14 16 13 9 8 5 4 4 27 24 23 9 22 25 24
21 17 13 13 12 11 9 6 3 3 4 2 2 4 5 8 3 2 5 11 27 35 33 26 21 19 10 6 10 12 7 6 13 15 6 13 4 7 37 26 30 16 16 16 19
11 18 13 10 9 8 7 5 3 2 2 1 1 3 1 7 5 5 7 11 25 29 27 30 21 11 3 8 6 6 4 5 9 17 9 14 7 17 24 25 30 23 12 13 14
16 12 13 11 7 7 5 5 2 1 4 5 3 2 3 7 5 3 6 9 19 22 20 22 22 6 3 7 5 2 7 6 9 25 9 11 5 12 20 22 25 22 15 14 13
16 14 11 9 6 6 3 2 4 2 4 3 3 3 5 7 5 3 2 3 11 23 17 20 9 4 2 6 15 15 6 9 8 13 12 13 2 6 10 19 25 29 27 19 15
20 16 9 9 4 4 5 2 2 2 2 0 2 2 5 5 4 3 4 3 7 17 3 13 5 12 6 3 1 6 4 8 3 8 10 16 6 10 18 24 23 27 27 25 18
19 17 10 7 4 2 2 2 3 1 2 1 3 4 3 2 4 4 2 4 3 4 7 2 10 6 7 3 5 8 5 4 2 3 10 7 10 11 12 22 28 21 19 25 19
19 18 13 6 5 3 2 2 4 2 1 2 0 1 1 3 3 3 2 4 3 6 12 3 7 9 6 3 5 3 7 4 4 4 3 5 4 10 11 19 24 25 22 17 20
19 17 11 4 5 7 3 2 2 5 2 1 3 2 2 3 4 7 7 5 5 8 6 1 4 9 7 5 4 3 2 4 5 5 4 5 4 7 9 13 10 28 30 25 19
17 16 7 6 4 7 3 4 3 2 1 3 3 5 3 3 7 3 7 3 2 11 4 1 1 8 5 5 5 2 4 4 2 3 3 2 1 5 3 7 16 19 33 33 26
16 12 4 5 6 6 3 2 1 4 2 2 3 2 5 3 3 5 3 2 3 7 4 1 1 3 3 3 5 6 6 7 4 3 3 4 5 5 5 6 5 12 30 30 25
13 6 4 4 2 7 5 2 2 4 0 4 3 5 5 4 4 4 6 4 3 6 2 3 3 2 2 7 2 3 5 2 2 1 4 3 4 14 5 5 6 10 19 26 26
7 3 3 3 4 6 6 2 6 2 1 3 3 7 4 6 3 4 7 2 1 4 5 4 5 3 1 2 5 5 6 5 5 4 3 1 7 6 5 9 17 20 18 23 27
4 7 4 4 4 8 1 3 6 5 2 2 11 4 3 6 5 6 9 8 4 4 2 4 3 1 2 1 3 4 4 3 6 3 3 4 7 8 7 7 6 13 20 25 27
8 8 5 4 7 6 3 3 1 3 2 1 2 4 3 6 7 4 6 5 4 3 3 4 5 3 1 1 4 3 5 3 3 4 4 4 5 6 5 8 5 8 20 27 27
8 4 3 5 7 0 2 4 4 4 3 1 3 3 6 4 3 5 6 1 4 5 4 3 3 2 2 3 5 2 1 3 4 4 4 1 5 6 6 8 8 10 22 26 25
3 3 3 5 3 0 1 3 2 2 1 2 1 3 2 3 5 4 7 4 13 11 7 3 4 2 3 1 2 1 4 5 4 4 2 2 6 2 6 7 10 13 23 22 23
2 3 2 2 2 2 5 3 2 4 3 3 3 3 2 2 4 2 3 2 17 7 7 6 2 4 4 1 2 5 5 3 3 3 6 4 5 2 4 1 10 16 20 21 22
2 1 1 2 1 1 3 3 2 3 3 3 2 3 2 3 5 3 3 3 5 1 3 4 3 5 6 4 4 8 12 10 6 4 6 12 7 5 4 2 8 18 23 22 19
2 2 2 1 1 2 1 5 3 2 6 6 3 4 1 2 2 3 3 3 4 7 4 3 5 4 4 3 4 5 9 19 17 19 10 10 12 9 6 7 16 20 18 18 20
3 2 1 1 3 1 5 5 6 4 6 4 3 5 3 3 2 5 5 3 3 2 3 1 2 2 3 2 4 4 8 15 20 19 18 10 15 6 11 12 16 24 23 24 25
5 4 1 6 4 1 2 2 4 5 3 7 7 2 4 2 4 3 4 4 6 7 3 3 4 2 3 4 4 6 12 14 10 11 17 12 27 4 5 8 19 26 25 27 26
Wind_Direction
343 339 331 324 318 318 308 292 288 278 257 260 250 244 234 232 217 216 226 217 209 213 199 197 193 192 190 185 184 187 174 214 197 191 205 47 20 350 0 355 329 165 157 169 162
359 355 352 344 338 333 321 308 304 290 268 257 259 249 236 232 223 219 219 212 205 198 210 195 197 197 187 174 165 158 208 222 203 207 1 317 51 346 358 328 341 106 142 161 165
2 9 13 13 11 8 351 339 315 312 285 270 260 249 232 215 219 261 236 216 207 208 200 204 197 196 195 166 175 167 210 158 194 210 286 328 352 351 356 331 30 341 157 168 176
3 6 6 7 8 0 347 346 326 315 298 279 278 251 183 182 195 131 160 218 219 200 204 193 201 193 176 189 177 171 218 174 162 186 252 306 319 327 325 277 295 310 209 172 184
2 2 8 6 11 17 22 26 34 34 348 316 278 212 174 192 229 241 223 225 202 197 199 192 188 188 192 174 156 199 174 166 135 144 152 249 291 318 293 288 317 291 195 193 188
357 1 5 10 16 20 20 29 53 42 6 27 69 167 178 222 259 269 297 221 200 193 191 191 192 184 185 169 171 177 161 154 168 173 187 222 274 328 277 277 309 286 197 200 194
346 353 358 8 9 21 24 19 10 42 37 44 88 192 187 228 249 290 349 210 208 191 192 192 178 186 160 129 153 152 122 104 162 181 202 203 188 220 266 262 287 306 209 200 196
341 342 348 349 356 12 17 6 343 44 65 29 187 84 119 14 205 22 41 164 180 194 203 199 180 178 150 136 136 119 113 162 190 167 195 167 224 211 258 269 276 286 237 199 189
333 332 342 336 322 327 13 5 350 330 124 107 98 329 358 77 47 313 25 155 182 190 202 169 186 164 133 121 81 156 185 169 160 186 153 186 219 204 223 253 269 268 259 226 199
333 328 326 339 332 306 305 21 48 116 127 95 55 345 42 343 348 129 268 125 169 184 172 174 142 130 134 166 183 185 184 181 165 183 168 195 198 153 240 267 270 264 259 243 221
333 331 312 322 314 314 289 242 255 257 260 321 32 341 353 27 49 122 197 202 141 186 17 167 151 188 174 74 57 117 92 159 145 184 168 195 209 158 198 261 271 263 250 234 232
332 332 317 293 282 275 279 210 126 53 329 297 297 305 313 354 88 100 171 76 42 86 99 78 189 157 149 183 115 132 111 151 127 130 179 190 222 219 215 219 238 252 258 232 226
330 328 320 264 254 230 201 133 133 39 337 319 87 2 14 124 89 119 116 58 355 115 130 46 188 150 142 163 100 50 154 165 158 97 73 122 258 231 235 239 248 251 254 244 220
325 323 322 254 238 222 233 191 357 338 54 124 147 91 111 124 57 120 99 168 205 136 113 172 150 128 139 174 114 70 159 133 112 120 199 161 263 246 221 229 232 244 243 240 235
326 322 308 217 202 204 199 235 299 70 143 131 113 134 127 44 136 114 134 266 185 113 123 169 125 146 147 178 122 173 140 141 101 100 126 248 144 252 198 232 236 236 237 239 239
326 317 271 206 222 191 174 167 319 50 328 145 72 122 122 95 34 130 160 157 43 82 64 77 10 95 153 118 154 140 84 52 54 85 300 188 165 254 209 215 241 244 239 234 216
329 313 214 170 169 172 181 174 23 86 2 154 133 142 115 143 131 165 172 167 137 131 163 46 48 51 64 111 79 103 87 68 30 337 227 339 173 247 252 241 222 245 249 215 199
347 122 133 144 157 157 147 67 69 256 246 146 118 118 136 167 95 139 165 167 71 104 133 171 156 156 340 130 161 164 179 151 179 196 207 48 230 248 252 268 243 257 259 200 185
109 138 112 114 149 156 152 53 200 203 229 67 143 162 150 162 147 168 182 178 152 160 145 124 63 14 23 120 104 170 173 175 106 16 51 222 286 292 282 280 249 205 192 186 179
143 138 114 91 142 152 86 253 227 219 247 165 29 153 125 128 144 175 175 186 144 138 135 179 108 353 346 198 56 126 163 82 6 130 237 262 276 244 284 255 236 203 179 178 177
145 132 106 99 147 163 168 228 264 249 247 324 16 59 119 157 122 162 175 238 163 169 168 141 80 121 71 202 166 138 160 68 127 157 182 240 254 217 252 263 224 196 190 186 184
139 83 126 131 198 114 255 208 310 338 210 310 331 55 82 117 139 175 177 224 177 154 160 173 95 141 185 39 346 142 213 176 145 234 228 150 266 235 263 274 208 193 195 190 191
90 99 140 140 76 331 297 319 332 7 3 17 31 32 22 92 97 115 123 311 165 157 163 179 131 121 173 132 302 225 194 226 128 81 198 183 257 292 358 45 199 186 192 188 199
112 87 82 219 189 177 2 328 334 5 330 358 348 37 52 55 31 129 100 91 195 230 111 128 139 162 187 208 139 205 210 204 191 185 210 234 274 307 319 242 205 198 190 197 211
85 86 91 299 10 3 2 345 279 19 356 18 34 19 55 94 67 103 109 111 115 148 130 161 198 164 234 230 168 207 210 211 213 223 208 259 221 227 223 215 218 204 203 204 202
76 72 123 248 275 253 10 8 28 13 21 350 44 18 41 94 63 185 131 164 171 94 111 35 166 110 306 249 217 245 230 216 223 232 244 254 272 220 260 252 207 209 200 205 207
64 95 101 356 335 48 40 16 24 346 58 42 342 70 52 23 321 320 244 215 165 146 131 103 125 84 268 334 318 291 230 211 222 220 222 222 243 147 229 211 207 205 203 210 214
Height
1494 1489 1484 1480 1476 1472 1470 1470 1469 1469 1469 1470 1470 1471 1472 1474 1476 1477 1477 1480 1487 1491 1494 1498 1500 1503 1504 1509 1512 1516 1523 1524 1525 1525 1522 1522 1524 1523 1522 1520 1518 1514 1514 1517 1520
1492 1488 1483 1478 1474 1470 1467 1468 1467 1467 1467 1468 1468 1469 1470 1471 1473 1471 1474 1478 1484 1488 1491 1493 1498 1502 1505 1507 1510 1512 1517 1514 1514 1516 1518 1520 1526 1529 1526 1520 1517 1516 1516 1519 1521
1492 1487 1482 1478 1474 1471 1469 1467 1467 1466 1466 1466 1466 1467 1468 1470 1473 1469 1473 1476 1480 1485 1489 1493 1498 1502 1504 1505 1506 1509 1513 1513 1515 1518 1519 1520 1525 1530 1530 1524 1522 1528 1516 1519 1522
1492 1487 1483 1478 1475 1472 1469 1468 1467 1467 1466 1466 1466 1466 1468 1471 1473 1470 1470 1475 1476 1482 1488 1491 1496 1500 1501 1503 1505 1509 1510 1512 1516 1517 1522 1522 1525 1528 1530 1526 1524 1525 1525 1519 1522
1492 1487 1484 1480 1476 1473 1470 1469 1468 1467 1466 1466 1466 1466 1468 1470 1468 1467 1468 1469 1471 1478 1484 1488 1492 1497 1498 1500 1503 1505 1506 1511 1513 1519 1524 1526 1529 1532 1526 1523 1524 1521 1522 1522 1521
1493 1488 1485 1481 1478 1474 1472 1471 1469 1468 1468 1467 1467 1467 1468 1470 1468 1468 1465 1466 1469 1475 1483 1486 1490 1495 1498 1498 1503 1504 1505 1510 1514 1520 1525 1530 1531 1534 1522 1525 1524 1520 1520 1522 1522
1493 1489 1486 1482 1479 1475 1473 1472 1471 1469 1468 1468 1468 1466 1469 1469 1467 1467 1464 1464 1468 1474 1480 1486 1490 1495 1494 1498 1500 1501 1507 1513 1515 1520 1526 1530 1534 1532 1522 1525 1525 1525 1524 1522 1523
1491 1488 1485 1482 1479 1476 1474 1473 1472 1470 1469 1469 1469 1468 1468 1467 1468 1467 1466 1465 1467 1474 1481 1484 1490 1494 1494 1495 1499 1505 1509 1516 1516 1518 1524 1528 1528 1529 1527 1528 1526 1525 1525 1523 1523
1489 1486 1484 1481 1478 1476 1474 1473 1473 1472 1470 1470 1470 1470 1468 1469 1469 1469 1468 1467 1469 1476 1480 1480 1488 1491 1494 1498 1507 1506 1514 1513 1514 1512 1516 1522 1520 1518 1524 1526 1522 1522 1524 1523 1522
1486 1483 1481 1480 1477 1475 1474 1473 1473 1472 1472 1471 1471 1473 1471 1471 1469 1469 1469 1470 1472 1476 1478 1477 1484 1492 1494 1496 1494 1499 1509 1507 1508 1508 1514 1518 1515 1513 1517 1518 1519 1518 1520 1521 1520
1484 1481 1480 1477 1476 1475 1474 1472 1476 1475 1472 1472 1472 1472 1470 1470 1469 1469 1470 1471 1468 1474 1473 1480 1482 1486 1491 1490 1491 1497 1501 1509 1506 1505 1510 1513 1515 1515 1520 1521 1516 1514 1517 1518 1518
1482 1479 1477 1476 1475 1474 1473 1471 1471 1475 1473 1472 1471 1472 1471 1470 1472 1471 1472 1472 1471 1476 1481 1483 1483 1488 1491 1491 1494 1498 1503 1508 1505 1502 1507 1512 1514 1512 1515 1517 1516 1514 1512 1513 1515
1479 1475 1474 1473 1473 1473 1473 1472 1471 1473 1474 1473 1472 1472 1472 1473 1472 1473 1473 1475 1476 1482 1485 1486 1483 1487 1490 1493 1496 1501 1504 1507 1506 1506 1510 1514 1519 1513 1508 1510 1509 1507 1508 1510 1512
1476 1473 1471 1471 1473 1471 1473 1472 1472 1472 1476 1474 1472 1474 1474 1473 1475 1476 1476 1480 1480 1483 1487 1493 1483 1487 1491 1494 1499 1504 1500 1502 1506 1511 1520 1511 1525 1509 1501 1501 1500 1499 1501 1505 1508
1473 1471 1468 1468 1468 1470 1473 1473 1472 1472 1469 1473 1471 1474 1474 1475 1477 1477 1480 1481 1479 1479 1486 1491 1485 1489 1494 1496 1498 1503 1502 1504 1509 1515 1516 1517 1523 1502 1499 1499 1491 1491 1493 1498 1503
1469 1467 1466 1468 1468 1469 1471 1472 1473 1483 1481 1470 1472 1473 1478 1477 1476 1478 1479 1482 1481 1483 1488 1490 1490 1490 1494 1496 1497 1502 1507 1513 1519 1522 1533 1516 1519 1505 1495 1490 1489 1485 1486 1491 1496
1466 1465 1465 1466 1469 1469 1470 1472 1480 1479 1466 1468 1469 1472 1473 1479 1479 1479 1479 1481 1481 1487 1490 1490 1492 1494 1497 1500 1500 1501 1510 1525 1534 1543 1535 1522 1520 1487 1484 1485 1484 1484 1482 1485 1490
1464 1464 1466 1467 1467 1470 1471 1474 1483 1462 1462 1458 1467 1473 1472 1474 1478 1480 1481 1481 1481 1484 1487 1488 1494 1499 1499 1495 1499 1507 1509 1528 1525 1536 1527 1523 1516 1492 1480 1480 1478 1479 1480 1483 1487
1464 1465 1466 1466 1468 1469 1473 1487 1473 1470 1460 1459 1470 1470 1470 1471 1473 1476 1480 1479 1479 1480 1485 1492 1494 1497 1497 1497 1498 1504 1515 1510 1530 1541 1546 1522 1505 1487 1479 1478 1477 1475 1477 1481 1486
1464 1465 1466 1468 1468 1472 1475 1472 1467 1461 1459 1458 1457 1457 1464 1468 1471 1472 1476 1474 1475 1477 1482 1486 1497 1500 1498 1496 1498 1500 1505 1517 1534 1545 1531 1517 1513 1495 1480 1476 1476 1477 1475 1480 1484
1465 1466 1468 1468 1469 1471 1479 1473 1463 1459 1459 1457 1457 1457 1462 1467 1468 1472 1472 1474 1474 1479 1482 1485 1489 1501 1498 1497 1500 1504 1508 1511 1514 1524 1525 1517 1503 1485 1479 1475 1475 1474 1477 1481 1484
1466 1467 1468 1469 1471 1470 1472 1463 1461 1460 1459 1458 1457 1456 1459 1460 1467 1469 1473 1473 1473 1476 1482 1482 1490 1499 1496 1498 1498 1501 1504 1504 1517 1521 1526 1527 1503 1477 1476 1472 1472 1474 1477 1481 1485
1465 1467 1468 1469 1474 1472 1466 1463 1461 1460 1461 1460 1459 1458 1458 1460 1468 1468 1469 1469 1472 1475 1479 1481 1497 1498 1501 1503 1501 1499 1500 1499 1501 1509 1516 1516 1493 1475 1472 1471 1471 1474 1478 1481 1484
1467 1470 1469 1468 1466 1466 1467 1464 1462 1462 1461 1461 1460 1459 1459 1461 1464 1470 1470 1471 1472 1474 1476 1477 1487 1492 1494 1490 1488 1493 1490 1495 1496 1508 1494 1487 1483 1475 1473 1474 1474 1475 1477 1479 1482
1467 1470 1472 1473 1466 1465 1466 1466 1464 1462 1463 1462 1461 1462 1462 1463 1465 1471 1471 1473 1475 1476 1480 1481 1487 1493 1487 1484 1488 1489 1485 1485 1489 1482 1490 1469 1481 1473 1471 1471 1471 1474 1477 1479 1480
1468 1469 1470 1469 1468 1464 1464 1467 1466 1465 1467 1466 1465 1465 1463 1467 1468 1469 1470 1471 1471 1476 1478 1482 1495 1493 1497 1483 1484 1484 1484 1481 1478 1477 1476 1476 1471 1465 1465 1466 1468 1469 1471 1475 1476
1469 1470 1470 1471 1468 1466 1470 1469 1469 1467 1468 1469 1468 1466 1468 1470 1469 1468 1468 1467 1467 1473 1478 1482 1492 1501 1502 1491 1485 1486 1471 1473 1470 1468 1467 1477 1446 1462 1462 1462 1462 1464 1466 1469 1472